Tracking 29892 objects as of 21-Nov-2024
HD Live streaming from Space Station
objects crossing your sky now

THORAD AGENA D DEB

Track THORAD AGENA D DEB now!
10-day predictions


NORAD ID: 42532
Int'l Code: 1970-025SN
Perigee: 899.3 km
Apogee: 905.0 km
Inclination: 99.9 °
Period: 102.9 minutes
Semi major axis: 7273 km
RCS: Unknown
Launch date: April 8, 1970
Source: United States (US)
Launch site: AIR FORCE WESTERN TEST RANGE (AFWTR)

Note: This is SATELLITE DEBRIS
Your satellite tracking list
Your tracking list is empty




NASA's NSSDC Master Catalog

Two Line Element Set (TLE):
1 42532U 70025SN  24323.39470391  .00003221  00000-0  22370-2 0  9994
2 42532  99.9456 203.1994 0003878  42.2400 317.9059 13.99654354559020
Source of the keplerian elements: AFSPC